User: anonymous   Login
Location: Caltech
(34.1382°N, 118.1253°W)
Time: 16:28:00
(UTC-07:00)
Language:

Cosmos 2333 Rocket - Orbit

View from above orbital plane
View from above orbital plane
View from above satellite
View from above satellite

Ground track
Ground track

The orbit data is extracted from the following two-line orbital elements,

1 24298U 96051B   16241.74140570  .00000100  00000-0  80590-4 0  9995
2 24298  70.8409 318.4661 0019237 255.5714 104.3271 14.12426630 30522
Epoch (UTC): 28 August 2016 17:47:37
Eccentricity: 0.0019237
inclination: 70.8409°
perigee height: 837 km
apogee height: 865 km
right ascension of ascending node: 318.4661°
argument of perigee: 255.5714°
revolutions per day: 14.12426630
mean anomaly at epoch: 104.3271°
orbit number at epoch: 3052

The dashed part of the orbit path shows where the satellite is in the earth's shadow,  

DLR